This is the latest recevied weather packets stored in our database for station/object W4CKA. If no packets are shown the sender has not sent any weather packets the latest 10 day(s).
| Time | Temp. | Humidity | Pressure | Rain* | Wind** | Luminosity | Snow |
|---|---|---|---|---|---|---|---|
| 1777654287 | 18.89° C | 52% | 1056 hPa | 0 mm | - | 684 W/m² | - |
| 1777653682 | 18.33° C | 48% | 1056.1 hPa | 0 mm | - | 685 W/m² | - |
| 1777653082 | 18.33° C | 52% | 1056.3 hPa | 0 mm | - | 635 W/m² | - |
| 1777652480 | 17.78° C | 55% | 1056.4 hPa | 0 mm | - | 688 W/m² | - |
| 1777651880 | 17.22° C | 51% | 1056.6 hPa | 0 mm | - | 654 W/m² | - |
| 1777651280 | 17.22° C | 51% | 1056.9 hPa | 0 mm | - | 690 W/m² | - |
| 1777650679 | 17.22° C | 51% | 1056.8 hPa | 0 mm | - | 685 W/m² | - |
| 1777650079 | 16.67° C | 54% | 1056.8 hPa | 0 mm | - | 608 W/m² | - |
| 1777649479 | 16.11° C | 55% | 1057 hPa | 0 mm | - | 549 W/m² | - |
| 1777648878 | 16.67° C | 57% | 1057.2 hPa | 0 mm | - | 695 W/m² | - |
| 1777648278 | 15.56° C | 56% | 1056.9 hPa | 0 mm | - | 727 W/m² | - |
| 1777647676 | 15° C | 64% | 1057 hPa | 0 mm | - | 609 W/m² | - |
| 1777647076 | 15° C | 59% | 1056.9 hPa | 0 mm | - | 608 W/m² | - |
| 1777646472 | 15° C | 64% | 1056.9 hPa | 0 mm | - | 724 W/m² | - |
| 1777645872 | 13.33° C | 68% | 1056.7 hPa | 0 mm | - | 385 W/m² | - |
| 1777645271 | 13.33° C | 69% | 1056.9 hPa | 0 mm | - | 317 W/m² | - |
| 1777644671 | 13.33° C | 67% | 1056.8 hPa | 0 mm | - | 283 W/m² | - |
| 1777644069 | 12.78° C | 70% | 1056.8 hPa | 0 mm | - | 553 W/m² | - |
| 1777643463 | 12.78° C | 68% | 1056.8 hPa | 0 mm | - | 319 W/m² | - |
| 1777642862 | 11.67° C | 70% | 1057.1 hPa | 0 mm | - | 314 W/m² | - |
| 1777642261 | 12.22° C | 71% | 1057.2 hPa | 0 mm | - | 355 W/m² | - |
| 1777641661 | 11.67° C | 73% | 1056.9 hPa | 0 mm | - | 225 W/m² | - |
| 1777641057 | 10.56° C | 76% | 1057.1 hPa | 0 mm | - | 303 W/m² | - |
| 1777640456 | 10.56° C | 78% | 1056.9 hPa | 0 mm | - | 347 W/m² | - |
| 1777639856 | 9.44° C | 84% | 1056.8 hPa | 0 mm | - | 191 W/m² | - |
* Rain latest hour (hover to see other rain measurements)
** Current wind speed in m/s (hover to see current wind gust speed)